Location: Newark
(13.6797°N, 8.5297°E)
Time: 18:18:05
(UTC+00:00)

Courier 1B Rocket - Pass Details

Date: 25 January 2020
Orbit: 920 x 1202 km, 28.2° (Epoch: 25 February)

Event Time Altitude Azimuth Distance (km) Brightness Sun altitude
Rises 06:58:31 0° 221° (SW) 4,090 8.1 13.8°
Reaches altitude 10° 07:01:42 10° 212° (SSW) 3,123 7.6 14.5°
Maximum altitude 07:08:36 34° 149° (SSE) 1,818 7.5 16.0°
Drops below altitude 10° 07:15:16 10° 87° (E) 3,021 8.9 17.5°
Sets 07:18:16 0° 78° (ENE) 3,942 9.0 18.2°
